TAM3876 SBSP-SBRJ

Flight info

Callsign TAM3876
Flight time 0h 45m
Altitude 23000
Route DCT NIBRU UZ171 KEVUN DCT
Aircraft A320/M-SDE3FGHIRWY/LB1

Departure

Time 2026-05-03 23:51
Airport Congonhas–Deputado Freitas Nobre Airport (SBSP)

Arrival

Time 2026-05-04 00:37
Airport Santos Dumont Airport (SBRJ)
Time Latitude Longitude Altitude Speed Heading
2026-05-03 23:09 -23.62481 -46.65987 2600 ft 0 kts 237°
2026-05-03 23:40 -23.62472 -46.65970 2600 ft 4 kts 251°
2026-05-03 23:40 -23.62470 -46.65944 2600 ft 4 kts 301°
2026-05-03 23:41 -23.62477 -46.65934 2600 ft 1 kts 327°
2026-05-03 23:45 -23.62472 -46.65937 2600 ft 2 kts 327°
2026-05-03 23:45 -23.62449 -46.65953 2600 ft 4 kts 327°
2026-05-03 23:45 -23.62442 -46.65958 2600 ft 0 kts 327°
2026-05-03 23:46 -23.62435 -46.65963 2600 ft 3 kts 327°
2026-05-03 23:46 -23.62405 -46.65983 2600 ft 7 kts 327°
2026-05-03 23:46 -23.62354 -46.66016 2600 ft 10 kts 334°
2026-05-03 23:46 -23.62276 -46.66043 2600 ft 11 kts 345°
2026-05-03 23:47 -23.62199 -46.66073 2599 ft 14 kts 330°
2026-05-03 23:47 -23.62144 -46.66111 2590 ft 0 kts 327°
2026-05-03 23:49 -23.62143 -46.66111 2590 ft 0 kts 327°
2026-05-03 23:49 -23.62126 -46.66123 2591 ft 5 kts 327°
2026-05-03 23:49 -23.62075 -46.66135 2596 ft 10 kts 12°
2026-05-03 23:49 -23.62055 -46.66070 2596 ft 11 kts 129°
2026-05-03 23:50 -23.62080 -46.66051 2596 ft 1 kts 149°
2026-05-03 23:50 -23.62084 -46.66048 2588 ft 0 kts 149°
2026-05-03 23:50 -23.62101 -46.66037 2591 ft 4 kts 149°
2026-05-03 23:50 -23.62166 -46.65993 2595 ft 39 kts 148°
2026-05-03 23:51 -23.62652 -46.65656 2606 ft 123 kts 147°
2026-05-03 23:51 -23.63511 -46.65065 3004 ft 152 kts 148°
2026-05-03 23:51 -23.64428 -46.64452 3875 ft 158 kts 148°
2026-05-03 23:51 -23.65388 -46.63782 4639 ft 170 kts 147°
2026-05-03 23:52 -23.66437 -46.63033 5145 ft 190 kts 147°
2026-05-03 23:52 -23.67603 -46.62192 5581 ft 213 kts 147°
2026-05-03 23:52 -23.68913 -46.61248 6047 ft 237 kts 147°
2026-05-03 23:52 -23.70222 -46.60030 6541 ft 259 kts 127°
2026-05-03 23:53 -23.70960 -46.58174 7202 ft 273 kts 105°
2026-05-03 23:53 -23.71289 -46.56108 8083 ft 279 kts 99°
2026-05-03 23:53 -23.71522 -46.54017 8947 ft 283 kts 98°
2026-05-03 23:53 -23.71763 -46.51872 9850 ft 286 kts 99°
2026-05-03 23:54 -23.71965 -46.49659 10410 ft 305 kts 93°
2026-05-03 23:54 -23.71833 -46.47250 10689 ft 330 kts 83°
2026-05-03 23:54 -23.71450 -46.44711 11161 ft 344 kts 82°
2026-05-03 23:54 -23.71067 -46.42116 11957 ft 348 kts 83°
2026-05-03 23:55 -23.70688 -46.39495 12742 ft 352 kts 83°
2026-05-03 23:55 -23.70309 -46.36843 13497 ft 356 kts 83°
2026-05-03 23:55 -23.69927 -46.34155 14240 ft 360 kts 83°
2026-05-03 23:55 -23.69543 -46.31442 14920 ft 364 kts 83°
2026-05-03 23:56 -23.69151 -46.28701 15634 ft 368 kts 83°
2026-05-03 23:56 -23.68755 -46.25921 16297 ft 372 kts 83°
2026-05-03 23:56 -23.68354 -46.23122 16934 ft 376 kts 83°
2026-05-03 23:56 -23.67956 -46.20329 17559 ft 379 kts 83°
2026-05-03 23:57 -23.67537 -46.17471 18164 ft 384 kts 80°
2026-05-03 23:57 -23.66643 -46.14712 18770 ft 391 kts 63°
2026-05-03 23:57 -23.65025 -46.12310 19352 ft 398 kts 46°
2026-05-03 23:57 -23.62808 -46.10477 19917 ft 405 kts 30°
2026-05-03 23:58 -23.60295 -46.09048 20485 ft 409 kts 28°
2026-05-03 23:58 -23.57730 -46.07667 21041 ft 412 kts 27°
2026-05-03 23:58 -23.55146 -46.06278 21568 ft 416 kts 28°
2026-05-03 23:58 -23.52544 -46.04863 22107 ft 419 kts 28°
2026-05-03 23:59 -23.49926 -46.03423 22630 ft 422 kts 28°
2026-05-03 23:59 -23.47298 -46.01969 23122 ft 426 kts 28°
2026-05-03 23:59 -23.44571 -46.00657 23612 ft 430 kts 20°
2026-05-03 23:59 -23.41664 -45.99809 24088 ft 435 kts 11°
2026-05-04 00:00 -23.38642 -45.99463 24546 ft 439 kts
2026-05-04 00:00 -23.35612 -45.99371 24780 ft 442 kts
2026-05-04 00:00 -23.32537 -45.99272 24830 ft 442 kts
2026-05-04 00:00 -23.29464 -45.99167 24834 ft 442 kts
2026-05-04 00:01 -23.26391 -45.99060 24834 ft 442 kts
2026-05-04 00:01 -23.23310 -45.98952 24832 ft 442 kts
2026-05-04 00:01 -23.20239 -45.98843 24833 ft 442 kts
2026-05-04 00:01 -23.17164 -45.98734 24830 ft 442 kts
2026-05-04 00:02 -23.14091 -45.98626 24834 ft 442 kts
2026-05-04 00:02 -23.11011 -45.98519 24833 ft 442 kts
2026-05-04 00:02 -23.07955 -45.98257 24833 ft 440 kts 12°
2026-05-04 00:02 -23.05031 -45.97292 24833 ft 438 kts 25°
2026-05-04 00:03 -23.02434 -45.95642 24830 ft 436 kts 39°
2026-05-04 00:03 -23.00258 -45.93369 24834 ft 432 kts 53°
2026-05-04 00:03 -22.98655 -45.90624 24830 ft 429 kts 67°
2026-05-04 00:03 -22.97710 -45.87568 24833 ft 426 kts 81°
2026-05-04 00:04 -22.97473 -45.84374 24833 ft 424 kts 94°
2026-05-04 00:04 -22.97943 -45.81276 24832 ft 421 kts 108°
2026-05-04 00:04 -22.99103 -45.78370 24832 ft 419 kts 122°
2026-05-04 00:04 -23.00879 -45.75869 24831 ft 418 kts 136°
2026-05-04 00:05 -23.03150 -45.73909 24835 ft 418 kts 147°
2026-05-04 00:05 -23.05527 -45.72091 24833 ft 418 kts 141°
2026-05-04 00:05 -23.07635 -45.69921 24832 ft 418 kts 132°
2026-05-04 00:05 -23.09428 -45.67429 24833 ft 419 kts 125°
2026-05-04 00:06 -23.10997 -45.64760 24831 ft 419 kts 121°
2026-05-04 00:06 -23.12449 -45.62014 24833 ft 419 kts 120°
2026-05-04 00:06 -23.13847 -45.59265 24831 ft 419 kts 120°
2026-05-04 00:06 -23.15266 -45.56449 24832 ft 420 kts 120°
2026-05-04 00:07 -23.16652 -45.53704 24832 ft 419 kts 120°
2026-05-04 00:07 -23.18061 -45.50923 24832 ft 420 kts 120°
2026-05-04 00:07 -23.19470 -45.48148 24830 ft 419 kts 120°
2026-05-04 00:07 -23.20881 -45.45374 24832 ft 420 kts 120°
2026-05-04 00:08 -23.22295 -45.42596 24831 ft 420 kts 120°
2026-05-04 00:08 -23.23707 -45.39821 24832 ft 419 kts 120°
2026-05-04 00:08 -23.25119 -45.37046 24832 ft 420 kts 120°
2026-05-04 00:08 -23.26531 -45.34266 24831 ft 419 kts 120°
2026-05-04 00:09 -23.27938 -45.31490 24833 ft 419 kts 120°
2026-05-04 00:09 -23.29350 -45.28707 24830 ft 420 kts 120°
2026-05-04 00:09 -23.30766 -45.25917 24833 ft 420 kts 120°
2026-05-04 00:09 -23.32175 -45.23138 24832 ft 419 kts 120°
2026-05-04 00:10 -23.33582 -45.20363 24831 ft 419 kts 120°
2026-05-04 00:10 -23.34991 -45.17580 24830 ft 419 kts 120°
2026-05-04 00:10 -23.36397 -45.14802 24832 ft 419 kts 120°
2026-05-04 00:10 -23.37785 -45.12057 24832 ft 420 kts 120°
2026-05-04 00:11 -23.39189 -45.09279 24833 ft 419 kts 120°
2026-05-04 00:11 -23.40596 -45.06492 24832 ft 420 kts 120°
2026-05-04 00:11 -23.42002 -45.03709 24833 ft 420 kts 120°
2026-05-04 00:11 -23.43407 -45.00926 24832 ft 419 kts 120°
2026-05-04 00:12 -23.44713 -44.98085 24829 ft 420 kts 111°
2026-05-04 00:12 -23.45436 -44.94996 24834 ft 423 kts 98°
2026-05-04 00:12 -23.45463 -44.91792 24834 ft 425 kts 84°
2026-05-04 00:12 -23.44862 -44.88623 24831 ft 427 kts 78°
2026-05-04 00:13 -23.44157 -44.85486 24831 ft 427 kts 78°
2026-05-04 00:13 -23.43454 -44.82347 24828 ft 426 kts 78°
2026-05-04 00:13 -23.42756 -44.79221 24636 ft 424 kts 78°
2026-05-04 00:13 -23.42063 -44.76114 24189 ft 421 kts 78°
2026-05-04 00:14 -23.41374 -44.73026 23635 ft 418 kts 78°
2026-05-04 00:14 -23.40921 -44.70995 23235 ft 415 kts 78°
2026-05-04 00:14 -23.40021 -44.66966 22451 ft 410 kts 78°
2026-05-04 00:14 -23.39351 -44.63964 21851 ft 407 kts 78°
2026-05-04 00:15 -23.38683 -44.60980 21273 ft 403 kts 78°
2026-05-04 00:15 -23.38023 -44.58031 20688 ft 399 kts 78°
2026-05-04 00:15 -23.37368 -44.55106 20096 ft 396 kts 78°
2026-05-04 00:15 -23.36930 -44.52170 19516 ft 391 kts 85°
2026-05-04 00:16 -23.36650 -44.50244 19119 ft 390 kts 79°
2026-05-04 00:16 -23.35947 -44.47404 18535 ft 387 kts 76°
2026-05-04 00:16 -23.35165 -44.44614 17962 ft 384 kts 73°
2026-05-04 00:16 -23.34279 -44.41874 17388 ft 381 kts 69°
2026-05-04 00:17 -23.33196 -44.39246 16826 ft 379 kts 67°
2026-05-04 00:17 -23.32094 -44.36661 16258 ft 376 kts 67°
2026-05-04 00:17 -23.30990 -44.34096 15715 ft 372 kts 67°
2026-05-04 00:17 -23.29895 -44.31555 15128 ft 369 kts 67°
2026-05-04 00:18 -23.28823 -44.29065 14601 ft 366 kts 67°
2026-05-04 00:18 -23.27747 -44.26567 14060 ft 363 kts 67°
2026-05-04 00:18 -23.26680 -44.24088 13520 ft 360 kts 67°
2026-05-04 00:18 -23.25621 -44.21631 12965 ft 357 kts 67°
2026-05-04 00:19 -23.24572 -44.19193 12422 ft 355 kts 67°
2026-05-04 00:19 -23.23530 -44.16777 11882 ft 352 kts 67°
2026-05-04 00:19 -23.22494 -44.14375 11355 ft 349 kts 67°
2026-05-04 00:19 -23.21466 -44.11992 10854 ft 346 kts 67°
2026-05-04 00:20 -23.20445 -44.09628 10339 ft 343 kts 67°
2026-05-04 00:20 -23.19449 -44.07328 10173 ft 329 kts 66°
2026-05-04 00:20 -23.18458 -44.05142 10040 ft 316 kts 65°
2026-05-04 00:20 -23.17488 -44.03060 9915 ft 302 kts 65°
2026-05-04 00:21 -23.16553 -44.01056 9654 ft 294 kts 65°
2026-05-04 00:21 -23.15633 -43.99072 9244 ft 292 kts 66°
2026-05-04 00:21 -23.14769 -43.97111 8834 ft 291 kts 68°
2026-05-04 00:21 -23.13929 -43.95123 8451 ft 289 kts 68°
2026-05-04 00:22 -23.13096 -43.93139 8039 ft 287 kts 68°
2026-05-04 00:22 -23.12269 -43.91175 7641 ft 285 kts 68°
2026-05-04 00:22 -23.11437 -43.89218 7225 ft 283 kts 68°
2026-05-04 00:22 -23.10610 -43.87279 6829 ft 282 kts 68°
2026-05-04 00:23 -23.09784 -43.85351 6434 ft 280 kts 68°
2026-05-04 00:23 -23.08964 -43.83436 6043 ft 278 kts 68°
2026-05-04 00:23 -23.08151 -43.81537 5719 ft 274 kts 68°
2026-05-04 00:23 -23.07345 -43.79661 5626 ft 277 kts 68°
2026-05-04 00:24 -23.06545 -43.77796 5615 ft 269 kts 68°
2026-05-04 00:24 -23.05781 -43.76024 5620 ft 251 kts 68°
2026-05-04 00:24 -23.05032 -43.74284 5617 ft 256 kts 68°
2026-05-04 00:24 -23.04285 -43.72540 5618 ft 254 kts 68°
2026-05-04 00:25 -23.03540 -43.70796 5620 ft 254 kts 68°
2026-05-04 00:25 -23.02793 -43.69059 5617 ft 252 kts 68°
2026-05-04 00:25 -23.02050 -43.67360 5618 ft 247 kts 68°
2026-05-04 00:25 -23.01314 -43.65682 5620 ft 245 kts 68°
2026-05-04 00:26 -23.00591 -43.64034 5616 ft 246 kts 67°
2026-05-04 00:26 -22.99854 -43.62358 5618 ft 245 kts 68°
2026-05-04 00:26 -22.99121 -43.60680 5617 ft 246 kts 68°
2026-05-04 00:26 -22.98390 -43.59007 5619 ft 245 kts 68°
2026-05-04 00:27 -22.97656 -43.57332 5621 ft 246 kts 68°
2026-05-04 00:27 -22.96918 -43.55655 5620 ft 245 kts 67°
2026-05-04 00:27 -22.96178 -43.53976 5618 ft 247 kts 67°
2026-05-04 00:27 -22.95441 -43.52307 5620 ft 244 kts 67°
2026-05-04 00:28 -22.94725 -43.50694 5604 ft 228 kts 67°
2026-05-04 00:28 -22.94071 -43.49195 5582 ft 215 kts 68°
2026-05-04 00:28 -22.93456 -43.47737 5447 ft 208 kts 69°
2026-05-04 00:28 -22.92867 -43.46336 5357 ft 199 kts 69°
2026-05-04 00:29 -22.92303 -43.44999 5235 ft 190 kts 69°
2026-05-04 00:29 -22.91745 -43.43688 4876 ft 192 kts 69°
2026-05-04 00:29 -22.91208 -43.42418 4761 ft 185 kts 70°
2026-05-04 00:29 -22.90685 -43.41167 4528 ft 182 kts 70°
2026-05-04 00:30 -22.90165 -43.39916 4255 ft 182 kts 70°
2026-05-04 00:30 -22.89638 -43.38670 4017 ft 180 kts 69°
2026-05-04 00:30 -22.89117 -43.37436 3770 ft 179 kts 69°
2026-05-04 00:30 -22.88595 -43.36203 3462 ft 179 kts 72°
2026-05-04 00:31 -22.88291 -43.34917 3206 ft 174 kts 90°
2026-05-04 00:31 -22.88319 -43.33614 2923 ft 173 kts 97°
2026-05-04 00:31 -22.88383 -43.32332 2795 ft 163 kts 97°
2026-05-04 00:31 -22.88426 -43.31155 2688 ft 154 kts 96°
2026-05-04 00:32 -22.88459 -43.30001 2449 ft 153 kts 96°
2026-05-04 00:32 -22.88493 -43.28848 2196 ft 153 kts 96°
2026-05-04 00:32 -22.88526 -43.27705 1936 ft 149 kts 96°
2026-05-04 00:32 -22.88580 -43.26593 1554 ft 149 kts 102°
2026-05-04 00:33 -22.88878 -43.25526 1154 ft 149 kts 116°
2026-05-04 00:33 -22.89713 -43.23371 1284 ft 155 kts 115°
2026-05-04 00:33 -22.90106 -43.22307 1212 ft 146 kts 114°
2026-05-04 00:34 -22.90495 -43.21287 1220 ft 145 kts 120°
2026-05-04 00:34 -22.91045 -43.20449 1176 ft 129 kts 136°
2026-05-04 00:34 -22.91731 -43.19867 1015 ft 120 kts 150°
2026-05-04 00:34 -22.92502 -43.19481 1187 ft 125 kts 157°
2026-05-04 00:35 -22.93307 -43.19104 1172 ft 130 kts 153°
2026-05-04 00:35 -22.94068 -43.18608 985 ft 125 kts 144°
2026-05-04 00:35 -22.94635 -43.17904 909 ft 122 kts 117°
2026-05-04 00:35 -22.94613 -43.16959 978 ft 136 kts 62°
2026-05-04 00:36 -22.93777 -43.16395 685 ft 152 kts 20°
2026-05-04 00:36 -22.92732 -43.16159 325 ft 151 kts
2026-05-04 00:36 -22.91715 -43.16244 49 ft 145 kts 359°
2026-05-04 00:36 -22.90890 -43.16295 27 ft 78 kts 357°
2026-05-04 00:37 -22.90576 -43.16315 28 ft 18 kts 356°
2026-05-04 00:37 -22.90491 -43.16382 27 ft 16 kts 262°
2026-05-04 00:37 -22.90496 -43.16476 29 ft 11 kts 266°
2026-05-04 00:37 -22.90519 -43.16559 29 ft 12 kts 231°
2026-05-04 00:38 -22.90602 -43.16585 29 ft 14 kts 179°
2026-05-04 00:38 -22.90707 -43.16581 29 ft 16 kts 177°
2026-05-04 00:38 -22.90827 -43.16574 29 ft 18 kts 176°
2026-05-04 00:38 -22.90962 -43.16563 29 ft 20 kts 175°
2026-05-04 00:39 -22.91106 -43.16542 29 ft 21 kts 151°
2026-05-04 00:39 -22.91211 -43.16521 29 ft 11 kts 213°
2026-05-04 00:39 -22.91242 -43.16561 29 ft 8 kts 260°